Regional Weather Roundup
Issued by NWS Bismarck, ND

Home | Current Version | Previous Version | Text Only | Print | Product List | Glossary On
Versions: 1 2 3 4 5 6 7 8 9 10 11 12 13 14 15 16 17 18 19 20 21 22 23 24 25 26 27 28 29 30 31 32 33 34 35 36 37 38 39 40 41 42 43 44 45 46 47 48 49 50
263
ASUS43 KBIS 222310
RWRBIS

NWR BROADCAST TEXT
NATIONAL WEATHER SERVICE BISMARCK ND
600 PM CDT TUE AUG 22 2017

NOTE: "FAIR" INDICATES FEW OR NO CLOUDS BELOW 12,000 FEET WITH NO
SIGNIFICANT WEATHER AND/OR OBSTRUCTIONS TO VISIBILITY.


CITY           SKY/WX    TMP DP  RH WIND       PRES   REMARKS
WILLISTON      SUNNY     80  40  23 VRB6      30.12F
MINOT          SUNNY     78  38  23 NW10      30.11F
MINOT AFB      SUNNY     77  36  22 N12       30.10S
BISMARCK       SUNNY     77  43  29 MISG      30.13F
DICKINSON      SUNNY     79  41  25 NE6       30.13F
GARRISON         N/A     76  38  25 NW7       30.12F
HETTINGER ARPT SUNNY     80  41  24 W6        30.14F
JAMESTOWN      SUNNY     72  47  40 N10       30.11F
CARRINGTON     FAIR      72  45  37 NW8       30.14S
HAZEN          FAIR      75  39  27 NW7       30.14F
LINTON         FAIR      77  41  27 NW7       30.15F
MANDAN         FAIR      73  41  31 VRB5      30.14F
RUGBY          FAIR      75  39  27 N13       30.10F
STANLEY        FAIR      75  39  27 VRB6      30.16S
TIOGA          FAIR      75  37  25 NW6       30.15S
WATFORD CITY   FAIR      79  37  22 VRB5      30.12F
$$

CITY           SKY/WX    TMP DP  RH WIND       PRES   REMARKS
GRAND FORKS    MOSUNNY   76  46  34 N14       30.05S
GRAND FORKS AF SUNNY     74  44  33 N12       30.06F
DEVILS LAKE    SUNNY     73  41  31 N14       30.11F
FARGO          SUNNY     76  42  29 NW20      30.06S
CANDO          FAIR      73  43  33 NW10      30.12F
CAVALIER       FAIR      73  41  31 NW20      30.05S
GRAFTON        FAIR      73  45  35 NW15G25   30.07S
GWINNER        CLEAR     73  46  38 N12       30.11S
LANGDON        FAIR      73  43  33 NE14      30.09S
ROLLA          FAIR      72  39  30 NW10G18   30.13S
WALHALLA       FAIR      72  70  94 NW16G23   30.06S
$$

CITY           SKY/WX    TMP DP  RH WIND       PRES   REMARKS
ABERDEEN       SUNNY     77  42  28 N14       30.12F
MOBRIDGE       SUNNY     79  47  32 CALM      30.11F
BUFFALO          N/A     83  39  21 VRB3      30.06F
RAPID CITY     SUNNY     84  49  29 SE14      30.11F
GLASGOW        SUNNY     83  34  17 VRB5      30.06F
SIDNEY         SUNNY     81  40  23 E5        30.11F
WOLF POINT     SUNNY     85  36  17 E10       30.08F
GLENDIVE       SUNNY     83  38  20 E3        30.10F
MILES CITY     SUNNY     87  34  15 CALM      30.07F
BAKER          SUNNY     84  37  18 CALM      30.12F
$$

CITY           SKY/WX    TMP DP  RH WIND       PRES   REMARKS
BILLINGS       MOSUNNY   87  35  15 E9        30.09F
GREAT FALLS    SUNNY     89  29  11 N7        30.07F
REGINA         CLOUDY    79  39  24 W10G17    30.05F
ESTEVAN        PTSUNNY   77  39  25 VRB8      30.11F
$$





USA.gov is the U.S. government's official web portal to all federal, state and local government web resources and services.